Location: Cuiry
(49.3858°N, 3.7708°E)
Time: 07:01:05
(UTC+00:00)

ATLAS 3B R/B - Pass Details

Date: 12 January 2026
Orbit: 936 x 1257 km, 63.8° (Epoch: 18 February)

Event Time Altitude Azimuth Distance (km) Brightness Sun altitude
Rises 17:43:55 0° 261° (W) 4,120 7.6 -14.7°
Reaches altitude 10° 17:46:56 10° 270° (W) 3,189 6.4 -15.2°
Maximum altitude 17:54:01 37° 336° (NNW) 1,861 4.0 -16.3°
Enters shadow 18:00:07 14° 37° (NE) 2,921 4.5 -17.3°
